Wind_Speed
7 7 8 8 7 8 8 8 8 8 8 8 8 8 8 8 9 9 9 10 10 9 10 10 11 11 11 11 11 11 11 10 9 8 8 8 8 8 8 8 6 5 4 5 6 6 7 8 9 10 10 11 12 13 13 12 11 11 11 11 12 13 13 13 13 13 13 13 13 13 13 12 12 11 11 11 11 10 10 10 10 9 8 8 7
8 8 8 8 8 8 8 9 9 9 9 9 9 9 9 10 10 10 10 11 11 11 10 10 11 12 12 12 12 12 11 11 10 9 9 8 8 8 8 8 8 6 5 5 4 4 4 6 8 9 9 9 10 11 11 12 13 13 13 12 12 13 14 14 14 14 13 13 13 14 14 14 13 13 13 13 12 12 11 11 11 10 9 9 8
9 9 9 9 9 9 9 10 10 10 10 10 10 11 11 11 12 11 10 10 11 11 11 11 12 12 13 13 12 12 12 12 11 10 10 9 9 9 9 9 9 8 8 6 4 3 3 4 5 7 7 8 9 9 10 11 13 14 14 14 14 14 14 15 15 15 15 14 14 14 14 15 15 15 14 14 14 13 13 12 12 11 10 10 9
10 10 10 10 10 10 11 11 11 12 11 11 11 12 12 12 11 11 10 10 10 10 11 12 11 11 12 13 13 12 12 13 12 11 11 11 10 10 10 10 10 10 9 8 6 5 4 4 5 6 7 7 7 7 9 12 13 14 14 14 15 16 16 16 16 16 16 15 15 14 14 15 16 16 16 15 15 15 14 13 13 12 12 11 10
11 11 11 11 11 12 12 13 13 13 13 12 13 13 13 12 10 11 11 10 9 10 11 11 11 10 10 11 12 12 12 12 11 11 12 12 12 11 11 10 10 10 10 9 8 7 6 6 6 7 7 7 7 8 10 12 14 14 14 15 16 17 18 17 16 17 17 17 17 16 15 15 15 16 17 17 17 16 15 15 14 14 13 12 12
11 11 11 12 12 12 13 15 15 14 13 13 15 14 12 11 10 11 11 11 10 10 11 11 10 10 9 10 10 11 11 11 11 11 12 12 13 12 12 11 11 11 11 11 10 10 9 9 9 8 7 7 8 9 9 11 13 14 14 15 17 18 18 18 18 18 18 18 18 17 17 16 15 15 16 17 18 18 17 16 16 15 14 14 13
11 11 12 12 12 12 14 16 15 14 14 14 15 12 9 10 11 11 11 11 12 13 14 13 13 12 11 10 10 10 11 12 11 11 11 12 12 12 13 13 12 12 12 12 11 12 12 11 11 9 8 8 9 9 9 11 13 14 15 16 18 18 17 19 19 18 18 18 18 18 18 18 17 17 16 16 17 18 18 18 17 16 15 15 14
11 11 11 11 11 12 14 17 16 13 12 13 13 11 10 11 11 11 12 13 15 17 17 16 15 13 12 11 10 11 11 11 11 11 11 11 11 11 11 12 13 13 13 12 11 12 13 13 12 11 10 9 9 9 9 11 13 15 16 17 18 17 16 18 19 19 20 19 18 17 18 19 19 19 18 17 16 17 18 18 18 17 17 16 15
10 11 11 11 12 13 14 17 16 12 12 12 12 12 12 11 11 13 14 14 16 17 15 14 13 12 12 10 10 10 10 9 9 10 10 10 10 10 10 10 11 12 12 12 11 11 13 14 14 12 11 10 9 9 9 10 13 15 16 17 18 17 18 19 20 20 20 20 19 18 18 19 19 19 19 19 18 17 17 18 18 18 18 17 17
11 11 12 12 13 13 14 14 14 13 13 12 12 12 11 12 14 16 15 14 13 13 11 11 13 13 12 10 9 10 9 9 9 9 8 8 8 8 9 9 10 11 10 11 11 11 12 14 14 14 13 11 10 10 10 11 12 14 16 17 17 17 19 20 21 21 20 20 20 19 19 20 20 20 20 20 20 19 18 18 18 19 19 18 18
12 13 12 12 12 12 13 13 13 13 12 10 10 11 12 14 15 14 13 11 10 10 10 11 12 13 11 10 9 9 9 8 8 8 7 6 6 6 7 7 8 10 10 9 10 10 11 12 13 13 14 13 13 13 14 13 13 14 16 16 16 17 19 20 21 21 20 19 20 20 20 20 20 20 21 20 20 21 20 19 18 19 20 20 19
13 13 12 11 12 12 12 12 12 10 10 10 11 13 14 13 12 10 8 8 9 9 9 10 11 11 9 8 8 8 7 7 6 6 5 4 3 4 4 5 6 7 8 8 8 8 9 9 10 11 11 12 13 14 15 16 16 16 16 16 17 18 18 20 20 20 20 19 19 20 21 21 20 20 21 21 21 21 21 21 20 20 20 21 20
13 12 11 11 11 11 12 11 10 9 10 11 12 12 10 8 7 7 7 7 8 8 8 9 9 9 8 6 6 6 5 4 4 4 4 4 3 3 3 4 4 6 6 6 7 7 7 8 9 9 10 10 11 12 13 15 17 18 19 19 19 19 19 20 19 18 19 19 19 20 21 22 22 21 21 21 21 22 22 21 22 21 21 21 21
12 11 11 11 11 11 11 9 10 11 11 11 9 8 5 4 5 5 6 6 7 7 7 8 7 8 9 7 4 3 3 1 1 4 6 5 4 4 3 3 3 4 5 6 6 7 7 7 8 8 9 9 9 10 11 12 14 16 18 19 20 20 20 20 19 17 17 18 19 20 21 22 23 23 23 22 22 23 23 23 23 22 22 22 22
12 12 12 11 11 11 10 10 11 12 11 8 6 4 3 3 4 5 5 6 6 6 6 6 6 7 9 8 5 4 2 1 3 6 5 3 5 5 5 4 4 4 4 5 5 6 7 7 7 7 8 8 9 9 10 11 12 13 15 17 19 20 20 20 19 18 18 18 18 18 20 22 23 24 25 24 23 23 23 23 23 24 23 23 23
13 13 12 12 12 12 11 12 13 11 8 6 4 3 3 3 3 4 4 4 5 5 5 6 6 6 6 5 6 5 3 2 7 5 2 4 5 5 5 5 5 5 4 5 5 5 5 6 7 8 8 8 8 8 9 10 11 12 13 14 16 18 19 20 19 19 19 19 19 19 19 22 23 24 25 25 25 25 24 23 23 24 24 24 24
13 13 14 14 13 13 12 13 12 9 6 4 3 3 3 3 3 3 3 3 4 5 5 5 4 4 5 4 4 4 3 6 7 4 3 4 3 4 6 5 5 5 5 4 4 4 4 5 6 7 8 8 8 8 9 9 10 11 11 13 15 16 17 17 18 19 20 19 20 21 21 23 23 24 25 26 27 26 25 25 24 23 23 24 24
14 14 15 14 14 13 13 13 10 8 6 4 3 3 3 3 3 3 3 3 4 4 4 4 4 4 3 3 2 3 4 6 5 4 5 5 4 5 6 5 5 6 5 5 4 4 3 4 5 6 7 7 8 8 8 9 10 11 12 13 14 15 16 16 17 18 18 18 19 21 22 23 24 24 25 26 27 27 27 26 26 25 24 24 24
15 15 15 14 14 14 13 12 9 8 6 5 4 3 3 3 3 3 3 3 3 3 4 4 5 4 3 3 2 2 4 4 4 5 6 5 5 6 6 5 6 7 6 6 6 6 5 5 4 5 5 6 7 7 8 9 9 11 12 14 15 15 16 16 16 17 18 18 18 20 21 22 24 25 25 26 26 27 27 27 27 27 27 26 25
15 15 14 14 14 13 13 11 9 8 6 4 4 4 3 3 3 3 3 3 2 3 4 5 4 4 4 4 3 2 3 3 3 3 4 5 5 6 5 6 7 8 7 7 7 8 8 9 8 8 8 8 8 7 7 8 8 9 10 13 14 15 16 16 17 17 18 19 19 20 21 21 23 24 25 26 26 26 26 27 27 28 29 28 28
14 14 13 13 13 13 12 10 8 7 5 4 4 3 3 3 3 3 3 3 3 4 5 5 4 4 4 4 3 3 3 3 4 3 2 4 4 5 6 5 6 7 7 6 7 7 8 9 9 9 9 9 10 10 10 10 10 10 10 11 12 13 15 16 17 18 19 19 20 21 22 22 23 24 25 26 26 26 26 27 28 29 29 29 29
13 13 13 13 13 12 11 9 8 7 6 5 4 3 3 3 3 4 4 4 4 5 5 4 4 4 4 4 4 4 4 4 4 3 2 4 5 5 6 6 5 5 5 5 5 5 6 7 8 9 9 10 11 11 11 11 11 12 12 13 13 13 13 14 16 18 19 20 21 22 23 24 25 25 25 26 26 27 27 28 28 29 29 29 29
14 13 13 13 12 11 10 9 8 7 6 5 4 4 4 4 4 5 5 5 6 6 6 5 5 5 4 4 4 4 4 4 4 4 4 4 5 6 6 7 7 5 4 5 4 5 6 7 8 9 10 11 12 13 13 13 12 12 12 13 14 15 15 15 15 16 17 20 22 23 23 24 26 26 27 26 26 27 28 29 29 30 30 30 30
14 14 13 13 12 11 10 9 9 8 7 6 5 5 6 6 6 7 7 7 7 7 7 6 6 6 5 5 5 5 5 5 6 6 6 5 6 7 8 9 9 7 6 6 5 6 7 8 9 10 10 12 12 14 15 14 14 13 13 13 15 16 17 17 17 16 16 17 20 23 24 25 26 27 28 28 28 28 29 29 30 30 31 31 31
14 13 13 13 12 11 10 10 9 9 8 7 7 7 7 7 7 8 9 9 8 8 7 7 6 6 6 6 6 6 6 7 7 8 8 7 7 7 8 10 11 11 10 9 8 8 9 9 10 11 11 12 13 15 16 16 16 15 14 14 15 17 18 18 18 17 17 17 18 20 23 25 27 28 29 30 30 30 30 30 30 31 31 32 32
13 13 13 13 12 12 11 11 10 10 10 9 8 8 8 8 8 8 9 9 9 9 9 8 7 7 7 7 7 7 7 8 9 9 10 9 8 8 9 11 13 14 13 13 12 12 11 11 12 13 13 13 14 16 17 18 18 17 15 15 16 17 18 19 19 19 19 17 17 18 21 24 27 28 29 30 31 32 32 32 32 32 32 32 32
14 13 14 14 13 12 12 11 11 11 11 10 9 9 9 9 9 9 10 10 11 11 10 10 9 9 8 8 7 7 7 8 9 10 11 11 10 10 10 10 13 15 15 16 17 16 16 16 15 14 14 15 16 17 18 19 19 18 17 16 17 18 19 21 21 21 21 20 18 18 19 22 25 28 29 31 32 33 33 34 34 33 33 33 33
15 15 15 15 14 12 12 12 12 12 12 11 10 10 10 10 11 10 10 11 12 11 11 11 11 10 10 9 8 8 8 9 10 11 12 12 12 12 12 11 11 13 14 16 18 18 19 20 19 18 17 18 19 19 18 18 19 19 18 17 17 18 19 20 21 22 22 22 21 20 19 20 23 26 28 30 32 33 34 34 35 35 35 35 35
16 16 16 15 13 12 12 12 13 12 12 12 11 11 11 11 11 11 10 11 12 11 12 12 11 11 11 11 10 10 9 10 12 12 13 14 13 14 14 13 12 13 13 14 16 18 20 22 21 22 22 22 22 21 20 18 18 19 18 18 18 18 18 18 19 21 22 22 22 22 22 21 22 24 26 28 31 33 34 35 36 36 37 37 37
17 17 17 16 14 13 13 13 13 13 12 12 12 12 12 11 11 10 10 10 11 11 12 12 12 12 13 13 12 11 11 12 12 14 15 15 15 16 16 15 15 15 14 16 17 16 19 23 22 21 24 26 24 23 23 20 18 18 19 18 18 19 18 18 18 19 20 21 22 22 23 23 23 23 24 26 29 31 33 35 36 37 37 38 38
18 18 18 16 14 14 14 13 13 13 12 12 12 11 10 10 9 8 8 8 9 10 10 11 13 13 14 14 14 13 13 13 13 15 16 17 17 17 17 17 18 18 17 18 19 17 17 23 25 23 24 27 27 26 25 22 19 18 19 20 19 19 20 19 19 19 19 21 21 22 23 24 24 25 25 25 26 29 32 34 36 37 38 38 39
19 19 18 16 15 14 14 13 13 13 13 12 11 10 10 9 8 7 7 8 8 9 9 10 12 14 15 15 15 14 14 14 14 14 15 16 17 17 17 18 18 19 20 20 21 21 18 20 25 26 25 26 28 27 27 24 21 19 19 21 20 20 21 21 21 20 20 21 23 24 25 25 24 25 26 26 26 27 29 32 35 37 38 39 39
20 20 18 16 15 14 14 13 14 14 13 12 12 11 11 10 9 9 9 10 10 10 10 10 12 13 15 15 16 15 15 15 14 14 14 15 16 17 17 18 18 19 20 21 22 23 20 19 23 25 24 25 26 26 27 26 24 22 21 20 21 21 22 22 23 22 21 22 23 25 26 26 24 24 24 25 26 27 28 30 33 36 39 40 40
21 20 17 16 15 15 14 14 15 14 13 13 13 12 12 11 11 11 12 13 13 13 13 13 13 14 15 16 16 16 15 15 15 14 15 15 16 17 17 18 18 18 18 20 22 24 22 19 19 21 22 23 25 25 25 25 24 24 23 21 21 22 23 23 24 24 23 23 24 25 26 26 25 24 23 24 25 27 28 29 30 34 38 40 40
21 19 17 16 15 15 15 16 16 15 14 13 12 12 12 13 14 14 15 15 16 16 16 15 15 15 17 17 17 16 15 15 15 15 15 16 17 17 17 17 17 17 17 19 21 23 23 20 18 18 19 22 26 26 24 23 21 21 23 23 22 22 23 25 25 25 24 24 24 24 26 26 26 25 24 24 24 25 28 29 29 31 35 39 41
21 19 17 17 16 16 16 17 16 15 14 13 12 12 13 14 16 17 17 18 18 18 18 17 16 16 17 17 16 15 15 15 15 15 15 16 17 17 17 17 17 17 17 17 19 21 23 23 21 18 16 19 23 26 25 22 19 19 23 25 24 23 24 25 26 27 26 25 24 24 26 27 27 27 26 25 25 24 26 29 30 31 32 36 40
21 19 18 18 18 18 17 17 16 16 15 14 13 13 14 16 17 18 19 19 19 19 20 19 18 17 18 18 16 15 15 16 16 15 15 16 16 17 17 17 17 17 17 17 17 18 20 23 23 20 17 16 18 22 22 19 17 20 25 26 25 25 26 26 27 28 26 26 25 25 27 28 29 29 29 29 28 27 26 27 30 32 32 34 38
21 21 19 19 19 18 17 17 17 16 15 15 15 15 16 17 18 19 19 19 20 20 20 20 19 18 18 18 17 16 16 17 16 16 16 16 16 17 18 18 18 18 17 17 18 17 19 22 24 22 20 17 17 20 18 16 17 21 24 25 23 23 23 25 28 29 28 27 26 26 28 29 30 31 31 31 32 33 31 29 29 32 33 34 36
22 21 21 20 20 19 18 19 18 16 15 16 16 16 17 17 18 18 19 19 19 20 20 19 19 18 18 18 18 17 17 17 16 16 16 17 17 18 19 19 19 19 19 18 18 18 20 22 22 21 19 17 17 17 16 15 18 19 20 20 20 19 19 21 24 27 28 29 29 28 29 31 32 33 34 34 35 36 38 35 31 30 33 35 36
22 21 21 21 21 20 20 20 19 17 16 17 17 18 17 17 18 18 18 19 19 20 20 19 18 19 18 18 18 18 17 16 16 16 17 18 19 20 21 21 21 21 21 19 19 21 22 21 20 19 17 16 16 16 16 16 17 18 17 18 18 18 19 19 20 22 25 29 30 28 29 32 35 35 36 38 38 39 42 42 38 32 31 33 36
21 20 22 22 22 22 21 21 19 18 18 19 18 18 18 17 18 18 19 19 20 21 20 19 19 18 18 18 18 17 16 15 15 16 18 20 21 23 23 23 23 22 22 21 21 23 22 20 19 19 18 17 17 18 19 18 18 20 21 22 21 20 20 21 21 21 21 25 28 27 24 28 35 39 39 40 41 41 43 46 43 36 32 31 33
21 20 22 23 24 24 23 22 21 20 20 20 19 19 18 17 18 19 19 20 21 21 20 20 19 18 18 18 17 15 15 15 16 17 19 21 23 24 24 24 24 23 23 23 22 23 22 20 20 19 20 21 21 22 23 21 21 21 21 23 24 25 26 26 26 25 22 20 24 25 24 25 34 42 43 42 43 44 45 48 45 39 34 31 31
23 20 22 23 24 25 25 24 23 22 22 21 20 19 18 18 18 19 20 21 21 22 22 21 20 19 19 18 17 16 16 16 17 18 20 23 25 26 26 25 24 24 24 24 24 24 23 22 22 21 22 24 22 23 25 24 23 21 21 23 25 27 28 28 29 29 26 22 21 24 31 32 34 41 45 44 45 46 47 50 49 42 35 32 31
26 22 23 23 24 25 26 26 25 24 23 22 21 20 19 19 19 20 21 22 23 23 24 23 22 20 20 19 18 18 17 17 19 20 21 23 25 27 27 26 25 25 25 26 26 25 24 25 26 25 25 25 22 23 25 25 25 24 24 25 26 27 28 29 31 31 29 28 25 27 35 38 34 37 43 45 47 50 51 52 51 43 36 32 31
28 25 25 25 26 27 28 28 27 25 25 23 22 21 20 19 19 20 22 23 24 25 26 25 24 23 22 21 21 20 19 19 20 21 22 23 24 26 26 26 26 26 26 26 25 25 26 27 29 28 27 25 24 25 26 26 27 28 28 27 27 28 30 31 32 32 32 32 29 27 32 34 28 29 37 43 48 52 54 54 50 43 36 32 30
31 27 26 26 27 27 27 28 28 27 27 25 23 22 21 20 20 21 23 25 26 27 27 27 26 25 24 24 23 23 22 22 23 23 23 23 24 24 25 26 26 26 26 25 25 25 26 27 30 30 27 25 26 26 26 26 28 30 31 30 29 32 35 35 35 37 35 30 25 26 33 32 27 31 40 46 51 54 56 54 48 43 38 33 30
33 29 27 27 28 27 26 28 29 28 27 26 24 23 23 21 21 22 25 26 26 27 28 27 27 27 26 26 26 25 24 24 25 25 24 23 23 24 25 25 25 25 26 27 27 26 25 25 27 27 25 24 25 26 26 26 29 31 31 31 31 34 35 34 33 32 29 23 22 28 35 33 29 36 46 50 53 55 54 50 46 44 41 35 31
35 31 29 29 29 27 26 28 28 28 27 26 24 23 23 22 22 24 26 26 27 27 28 28 29 29 29 28 28 28 26 26 26 26 25 24 23 23 24 24 25 26 28 28 28 26 25 24 24 25 25 25 25 26 26 27 29 30 29 29 31 32 30 29 29 28 25 24 24 28 34 34 33 40 48 52 54 54 51 49 47 44 41 37 33
35 32 31 31 30 28 27 27 27 26 26 24 22 22 21 21 22 24 26 26 27 28 29 30 30 31 30 30 30 30 28 28 28 27 26 25 23 23 24 24 25 27 28 29 28 26 25 24 24 24 25 25 24 25 26 26 26 27 27 30 31 29 26 28 30 28 25 26 27 29 33 35 35 42 50 53 53 52 51 51 49 43 41 39 34
36 33 32 32 30 28 27 26 25 25 26 24 23 23 22 20 21 24 25 26 27 28 30 31 30 30 30 31 32 31 30 31 30 28 27 26 24 23 23 24 26 27 27 28 27 25 24 23 23 23 24 23 23 24 25 25 25 25 27 31 30 26 26 30 31 29 27 31 32 29 31 35 37 42 49 51 52 54 52 48 45 41 39 38 34
36 35 34 32 29 27 26 26 25 25 26 25 25 25 23 21 21 23 25 26 27 29 31 31 30 30 30 31 29 25 23 27 28 27 26 25 24 23 22 24 26 27 26 25 25 23 23 22 23 23 23 22 22 25 25 25 25 26 28 30 26 24 27 30 30 29 30 37 38 32 30 37 41 43 46 46 50 57 53 46 43 40 37 34 31
Wind_Direction
255 257 259 259 262 261 262 264 264 268 269 270 267 268 275 280 285 287 288 287 284 283 282 285 285 284 281 278 277 277 277 278 281 282 281 276 270 270 273 276 275 268 267 269 270 274 275 270 265 258 249 245 243 239 238 243 243 240 241 243 248 250 252 254 252 248 245 246 247 246 243 241 240 240 240 238 236 238 241 243 244 246 249 249 249
255 257 261 262 262 263 264 266 267 267 266 268 270 276 283 288 291 293 294 289 285 284 284 284 284 285 283 280 276 276 275 274 275 276 276 273 265 263 266 270 270 267 265 269 280 298 298 281 273 270 264 254 252 246 240 245 250 249 244 240 244 248 250 253 254 255 254 251 250 250 247 244 243 242 241 241 241 241 240 243 245 246 249 251 253
257 260 262 263 264 266 269 270 271 271 270 273 277 284 288 293 294 294 294 289 287 289 289 287 285 284 285 284 280 279 278 274 271 269 267 267 262 257 257 261 265 265 264 264 271 288 297 295 286 278 272 262 254 249 245 244 247 251 249 244 244 244 246 249 252 254 255 255 254 253 252 249 245 243 243 243 243 244 243 243 245 245 248 250 253
258 262 264 268 269 271 275 275 275 274 275 278 282 285 285 290 295 296 295 290 292 296 295 294 291 288 286 285 284 284 283 279 274 267 263 262 260 256 253 254 257 261 265 268 270 269 271 281 281 271 266 260 250 243 245 247 247 249 249 247 247 245 241 243 247 251 252 252 252 253 254 254 251 247 244 243 244 245 245 245 245 245 246 248 251
258 263 266 271 272 275 277 273 273 273 275 278 284 286 283 288 296 299 300 299 302 301 299 300 300 298 292 287 286 287 286 283 279 273 266 260 258 257 254 253 251 254 262 270 274 273 270 265 262 263 264 260 251 242 241 248 252 253 251 247 247 246 243 241 243 246 249 251 251 250 251 253 255 253 249 245 244 244 245 246 246 245 244 246 249
260 265 268 272 272 275 275 274 277 275 276 280 284 287 285 289 297 301 306 306 305 304 303 302 300 303 301 293 288 287 287 286 283 279 274 267 260 256 254 254 252 254 260 268 274 275 271 264 258 259 261 256 250 249 248 252 256 255 253 250 248 247 245 246 245 243 245 249 251 251 252 251 252 255 255 252 247 245 244 246 247 245 243 243 246
263 266 270 273 273 275 277 282 284 276 277 284 288 293 296 297 302 307 308 306 306 307 306 302 299 300 299 296 293 292 291 288 283 280 279 275 269 262 256 254 255 257 260 265 269 270 268 265 262 257 252 249 246 249 250 251 255 253 249 247 247 246 244 245 247 248 246 246 249 251 252 253 253 252 253 255 254 250 246 245 246 246 244 243 244
264 266 271 274 274 276 280 288 292 284 282 288 294 303 307 304 305 307 306 305 307 306 304 301 299 297 294 293 293 295 296 292 285 281 279 277 276 271 263 258 256 257 261 264 265 266 265 263 264 263 257 257 254 253 251 247 250 250 246 245 248 248 245 243 244 247 248 248 249 249 250 252 254 254 253 254 255 256 253 249 246 244 244 245 245
264 267 270 272 274 280 284 290 295 295 293 296 301 304 302 301 302 305 306 305 306 306 303 301 301 300 297 293 289 293 295 293 287 282 282 283 281 277 273 269 263 261 260 261 262 263 263 261 262 263 262 262 261 259 253 245 244 245 244 247 251 251 249 246 243 242 244 246 249 249 250 250 251 254 255 255 254 255 258 257 252 247 245 245 246
268 269 271 276 281 285 286 288 291 295 298 301 301 297 296 300 302 305 306 305 306 309 308 307 307 308 308 303 295 294 294 293 291 290 291 291 288 282 278 275 273 270 266 263 263 264 264 262 262 262 262 262 261 258 252 245 241 242 244 246 249 250 249 248 246 246 242 242 245 247 249 251 251 250 251 254 255 255 255 258 258 255 251 249 249
272 276 280 283 283 282 281 283 287 292 297 297 293 293 299 303 304 305 308 307 307 310 310 312 314 316 319 316 306 302 302 300 298 298 298 293 288 288 285 280 277 276 274 272 269 267 268 268 267 265 264 263 260 257 256 253 247 246 247 247 248 248 248 248 248 249 248 245 246 246 247 251 253 252 250 250 253 255 255 255 257 259 258 256 253
277 282 282 280 277 276 279 284 289 292 293 292 291 295 298 300 302 305 308 308 310 313 314 317 320 325 329 325 315 313 311 307 306 307 308 308 304 301 299 292 286 284 282 281 279 278 278 276 275 271 268 266 262 260 260 259 258 256 254 253 253 251 250 249 248 249 251 250 248 246 246 248 252 254 254 252 250 252 255 255 255 257 259 259 257
278 278 273 273 273 276 283 289 295 297 295 292 293 295 295 297 301 303 305 309 315 320 323 326 330 336 343 341 324 320 320 309 312 330 334 336 335 326 319 309 298 295 293 291 290 289 287 283 280 277 274 273 270 268 266 264 263 261 259 258 256 255 253 252 253 254 256 255 253 251 249 247 249 252 255 257 255 252 252 252 254 256 258 259 258
275 269 268 272 276 282 291 295 298 301 300 298 296 295 296 301 299 300 305 314 322 328 334 339 341 343 347 356 1 356 346 325 358 350 339 341 358 2 359 347 319 303 299 296 295 293 292 290 285 281 277 275 275 273 273 272 269 265 262 260 257 257 258 259 261 261 260 263 264 261 257 252 250 250 250 253 256 256 254 251 251 254 256 257 258
272 268 272 277 281 288 294 296 298 302 303 303 301 298 294 294 296 301 310 321 328 335 342 342 340 341 345 352 1 16 50 105 4 347 337 1 18 11 3 0 346 327 319 309 304 301 300 301 299 295 288 281 275 272 271 271 271 272 270 265 261 258 259 262 265 264 261 264 266 263 260 256 253 251 249 247 249 252 254 254 253 252 252 254 256
271 271 276 280 283 289 292 295 299 301 303 303 301 292 282 287 298 303 309 319 326 331 336 333 332 340 349 348 348 17 73 354 355 11 25 12 16 15 4 356 348 337 334 325 319 316 310 308 305 304 302 296 289 281 275 271 269 271 270 269 266 261 260 262 264 264 262 263 264 263 261 258 254 251 249 247 247 248 249 253 254 253 251 250 252
271 274 279 281 283 288 291 294 297 300 303 301 293 287 287 293 298 298 303 314 320 324 329 329 333 343 358 359 350 13 16 347 359 39 33 11 30 31 11 360 359 356 352 346 338 334 324 315 307 303 304 302 301 296 290 284 280 278 275 272 270 268 266 266 266 265 264 264 264 263 261 259 256 253 250 247 248 249 248 249 251 253 253 251 250
271 274 278 280 283 288 292 294 298 302 302 298 293 294 295 292 291 293 303 312 316 322 327 330 337 346 358 8 359 345 339 345 357 353 359 37 64 39 25 20 19 20 16 11 4 359 347 330 319 311 309 309 310 309 304 298 292 288 287 282 279 277 274 272 269 267 264 263 262 261 260 259 258 256 252 248 247 247 247 247 248 250 252 253 252
270 272 275 278 283 289 292 295 299 300 299 294 291 295 292 285 282 288 295 300 306 318 325 328 332 340 349 357 357 332 325 338 348 339 346 18 50 54 54 47 38 33 31 30 32 34 34 31 17 358 347 342 337 330 323 315 307 299 294 292 290 287 283 279 274 269 265 262 259 259 258 257 257 257 254 251 248 246 246 247 247 248 249 251 253
267 269 273 278 283 287 289 293 296 295 292 281 278 287 284 275 273 279 283 284 297 313 320 326 328 335 349 357 359 348 334 332 331 335 332 336 13 40 42 54 53 37 34 42 46 53 58 61 60 52 44 36 29 19 5 351 339 326 312 303 298 294 290 285 280 275 270 265 260 259 258 256 255 255 255 254 253 250 248 247 247 247 248 248 250
266 269 274 278 281 283 284 288 289 286 279 264 269 278 272 271 274 280 280 278 296 308 314 324 330 335 347 356 359 353 346 342 332 329 318 311 332 0 4 32 49 36 37 43 46 56 59 61 63 59 54 46 38 32 24 18 12 4 352 337 322 310 301 292 285 280 275 271 266 260 258 258 256 254 254 254 255 253 251 249 247 247 248 247 247
268 272 276 279 279 277 278 281 279 270 259 256 268 276 273 279 284 284 284 285 297 306 309 317 326 331 336 340 347 347 344 346 337 329 316 305 312 334 341 343 2 24 33 28 29 33 31 31 32 30 29 25 19 14 9 5 5 7 4 357 349 339 326 313 300 289 281 276 272 266 261 258 258 257 254 253 253 253 252 250 249 248 248 247 246
269 273 276 277 275 273 274 275 270 260 254 262 280 291 295 301 294 286 287 291 296 300 304 309 317 319 317 320 327 330 328 327 325 318 314 309 306 315 323 324 331 347 354 353 354 351 350 354 359 1 2 3 4 3 359 353 350 351 353 353 350 346 342 334 323 309 296 284 276 272 266 261 259 258 256 254 252 252 251 251 250 249 248 247 246
268 272 275 275 274 274 275 272 265 260 260 273 287 292 299 301 296 290 290 290 290 293 298 303 311 311 309 312 314 315 319 319 320 318 314 305 300 310 317 319 322 324 325 326 324 323 322 327 336 342 343 346 351 355 354 350 344 338 338 342 344 343 343 340 334 325 314 300 287 278 271 266 261 258 257 256 253 251 250 250 249 248 248 248 247
269 274 276 274 273 272 270 264 259 258 260 268 275 280 289 292 287 286 286 286 286 289 294 296 300 303 302 303 305 310 316 315 318 319 314 307 300 304 308 312 316 318 318 318 315 312 310 313 319 323 327 332 339 346 348 347 341 334 331 333 337 340 340 340 337 331 322 312 300 288 278 271 265 261 258 256 255 254 252 251 249 247 247 248 248
266 269 269 266 266 265 263 259 253 252 254 257 261 266 275 281 280 278 279 281 284 286 290 290 290 291 292 295 299 306 310 311 314 314 312 308 301 298 300 307 313 315 315 315 315 313 309 308 311 313 316 320 327 335 340 342 338 332 328 327 331 337 339 339 339 336 331 320 308 296 286 277 270 265 262 258 256 254 253 253 250 248 247 247 247
258 259 258 257 259 260 260 257 250 247 248 250 254 259 267 274 275 276 275 278 280 282 284 284 283 284 285 287 291 298 302 303 305 306 308 307 303 301 299 300 306 309 310 312 313 313 312 312 313 313 314 317 321 326 331 335 333 329 327 326 329 335 339 342 343 341 337 330 321 308 294 283 275 270 266 263 260 256 254 252 251 249 248 247 247
251 251 251 253 256 256 257 255 247 244 245 246 251 257 264 270 273 274 275 277 277 277 279 279 278 279 279 281 285 291 294 295 297 299 301 302 301 301 298 294 295 298 301 306 309 309 310 313 315 314 316 318 319 322 325 329 330 327 326 325 326 331 338 344 346 346 343 338 331 322 310 295 284 277 271 266 263 261 257 254 251 250 250 249 248
246 247 250 252 253 253 253 251 245 242 243 247 251 257 262 265 267 270 270 271 273 274 276 276 275 275 276 279 282 287 290 292 295 296 296 298 299 299 298 295 290 289 291 297 302 304 306 311 313 312 315 319 319 320 322 325 325 324 323 321 320 324 332 338 343 347 348 344 337 330 322 311 298 287 280 273 267 263 261 257 254 251 249 249 248
243 245 248 250 250 250 249 245 241 239 241 247 252 254 256 257 258 261 262 263 267 271 273 274 274 273 274 276 279 284 287 290 293 294 296 298 298 298 298 295 291 289 291 294 296 298 303 309 312 309 311 316 317 317 320 321 321 320 319 317 315 315 320 328 333 338 343 343 341 337 330 320 309 298 288 282 275 268 263 259 257 254 252 249 248
241 243 245 245 246 248 244 238 235 234 239 245 245 244 244 245 246 249 255 263 269 275 278 276 274 272 272 274 277 280 285 288 290 294 297 299 299 298 297 294 291 292 296 296 294 295 298 306 311 310 309 312 314 315 318 318 317 315 314 313 311 308 310 317 324 327 332 336 338 338 334 327 317 306 296 289 282 275 268 261 257 255 254 252 249
240 241 242 241 242 243 238 233 232 232 234 233 229 232 236 240 244 250 260 270 276 282 284 283 280 274 272 272 274 277 282 285 287 291 295 297 297 297 295 294 292 293 297 296 293 295 297 302 308 311 311 311 312 314 317 317 316 312 310 310 309 306 305 310 317 321 324 328 333 335 335 332 323 313 304 295 288 283 276 267 259 255 254 254 252
239 239 239 237 237 238 234 230 231 231 228 223 224 233 241 247 254 260 268 273 278 284 287 288 289 285 279 273 273 275 278 280 284 286 289 291 292 292 292 292 292 292 294 296 295 296 297 300 303 307 311 312 312 315 317 316 315 312 308 308 309 307 304 306 312 317 319 322 327 332 335 334 329 321 312 302 293 288 282 275 266 257 253 252 253
239 238 237 235 233 233 231 230 232 230 226 225 229 238 247 255 262 265 269 273 278 284 287 287 289 291 287 278 272 272 274 277 281 284 287 289 290 291 291 291 291 292 292 295 295 294 295 298 300 302 308 311 311 314 315 313 312 311 309 309 310 308 305 305 307 312 315 317 322 328 332 334 333 329 323 313 301 292 286 281 274 264 256 251 250
239 238 236 233 231 230 230 231 232 231 229 229 235 244 254 262 267 269 271 275 279 283 286 286 287 289 289 283 274 270 271 275 280 284 288 290 291 293 294 292 292 293 293 294 293 294 295 297 299 300 303 307 310 312 312 310 309 309 312 313 312 310 308 306 306 308 311 314 318 323 327 330 332 333 330 324 314 301 291 285 279 271 261 254 250
238 237 235 232 230 229 230 231 232 233 232 234 240 251 260 265 269 271 273 275 278 281 284 285 283 283 286 284 278 274 273 275 281 285 287 291 293 294 295 296 297 296 295 294 293 296 297 299 302 303 300 303 309 312 311 309 307 310 315 316 315 313 311 308 307 307 308 311 314 318 322 324 328 331 332 330 325 314 299 288 282 276 267 258 252
237 237 235 233 231 231 232 232 233 234 234 238 245 253 260 265 268 270 271 274 277 279 281 281 279 278 281 282 279 276 275 277 282 285 287 293 296 296 297 299 300 299 296 294 294 296 297 299 302 305 304 301 304 309 311 308 306 311 316 317 316 315 313 310 308 307 306 309 312 316 319 321 324 327 330 331 330 326 314 297 285 279 272 263 255
238 238 236 235 233 234 236 236 235 236 237 242 248 254 261 264 266 267 269 272 275 278 280 279 276 275 275 277 277 275 274 277 281 283 288 295 298 299 301 301 302 300 298 297 296 296 297 299 303 307 308 305 304 307 308 304 305 311 315 316 315 314 313 310 309 309 308 309 311 312 315 318 321 324 327 329 331 331 326 311 293 282 276 267 258
237 239 238 236 235 235 238 239 238 238 241 245 249 255 259 262 264 266 269 273 277 280 281 279 275 272 272 273 273 273 274 277 279 283 288 294 298 300 302 302 303 301 299 298 297 297 298 299 302 304 305 304 304 304 303 302 304 309 312 312 311 310 308 307 308 309 310 310 310 310 311 314 318 322 325 327 329 330 328 321 305 287 277 271 262
233 238 238 236 235 235 236 238 239 240 244 247 250 255 259 262 266 269 273 277 280 283 283 280 276 273 271 270 271 273 275 276 279 283 287 291 294 296 298 300 300 299 299 297 295 296 297 298 299 301 302 303 303 302 304 305 303 305 307 306 304 305 306 304 303 305 308 310 310 308 309 312 316 321 323 324 326 327 327 325 315 297 280 272 265
228 233 236 236 235 234 236 238 239 242 246 250 253 257 262 267 272 276 277 279 281 283 284 283 280 275 271 270 270 270 272 274 279 282 285 288 289 290 293 295 296 297 297 295 293 295 297 296 297 299 299 299 299 302 304 302 301 304 307 306 303 303 304 302 301 303 304 306 306 305 304 308 314 318 320 320 323 324 324 324 320 307 289 275 267
225 230 234 235 232 232 235 238 241 243 248 253 257 260 265 271 276 278 279 281 282 282 282 282 281 278 274 270 267 266 268 273 278 282 285 285 285 286 287 288 291 294 293 292 292 294 295 294 293 296 297 296 298 301 301 300 302 304 305 305 304 305 306 304 303 305 304 301 301 301 300 304 310 314 315 316 319 321 321 321 320 311 295 280 268
224 230 234 233 230 230 234 237 241 244 249 255 258 261 267 272 276 278 280 282 281 280 280 280 279 277 273 268 265 263 266 273 278 282 284 283 283 283 283 284 287 289 290 290 290 291 291 290 291 293 294 295 297 299 301 303 305 303 300 300 301 303 303 303 303 304 304 301 297 296 300 304 307 309 310 312 316 318 318 318 316 309 297 282 268
223 231 232 226 224 230 235 238 242 246 250 255 258 262 267 271 276 279 280 280 279 277 277 277 276 274 271 267 264 263 266 272 276 280 282 283 283 281 281 283 284 286 289 290 289 289 288 288 290 291 292 294 296 298 301 304 303 301 298 297 298 299 299 298 299 300 302 302 296 292 298 303 305 305 306 310 314 316 316 316 314 307 296 284 270
224 231 231 227 225 230 237 241 244 249 252 255 258 263 268 272 277 279 279 278 277 275 274 274 274 273 270 266 263 263 266 271 275 279 282 285 285 282 281 282 283 285 289 291 291 290 288 287 288 289 291 293 295 297 300 302 301 301 301 298 298 298 296 295 296 297 299 300 296 290 294 299 302 302 302 307 313 315 314 314 313 307 296 285 272
225 232 233 234 234 238 244 246 247 251 255 258 262 267 270 274 277 279 279 277 273 270 269 270 271 272 270 267 265 266 268 271 276 279 282 285 285 282 280 280 283 287 291 293 294 293 290 286 286 289 291 292 294 298 300 301 302 303 303 300 299 299 298 298 300 299 300 299 295 291 293 296 302 304 304 309 314 314 313 312 310 305 298 287 274
226 233 235 238 242 247 253 252 250 254 260 264 269 272 273 276 277 278 277 274 271 269 267 267 269 270 269 267 266 266 267 270 273 276 280 284 283 279 278 280 284 289 293 296 298 296 292 288 287 289 291 293 295 298 300 302 302 302 302 301 301 301 301 302 302 299 298 296 291 291 292 295 303 307 308 312 315 313 311 308 304 301 297 288 278
227 235 238 241 246 252 257 255 254 259 265 270 273 275 276 277 277 276 275 273 272 270 268 268 268 268 266 265 264 265 264 264 266 270 275 280 280 277 278 281 285 290 294 297 298 296 290 286 285 287 290 294 296 296 298 300 301 301 303 303 304 305 305 303 300 297 295 294 291 289 289 293 304 309 310 313 314 310 307 305 301 296 292 287 280
226 235 240 244 250 256 258 256 257 264 270 273 276 280 281 278 274 274 274 273 273 272 270 268 266 265 266 264 265 267 268 267 267 268 270 274 275 276 278 281 285 289 294 298 299 296 289 284 284 287 291 294 294 294 297 299 300 302 305 307 308 308 304 300 297 296 294 292 292 289 287 293 305 311 311 313 312 307 305 305 301 293 288 286 281
226 235 242 249 256 260 259 258 261 267 271 273 276 281 284 281 275 274 273 272 272 272 271 271 270 270 270 267 266 269 272 272 270 267 267 269 270 272 276 281 285 291 297 300 298 295 292 290 290 291 292 293 294 296 299 301 302 304 307 309 309 306 302 299 297 297 295 293 295 294 291 297 307 310 311 311 309 306 304 303 298 292 288 286 281
227 235 244 254 261 263 261 260 263 267 271 275 276 276 279 280 277 276 275 273 273 273 274 276 278 279 280 278 278 279 276 270 265 264 267 268 267 267 273 280 287 294 299 298 295 294 294 295 297 297 296 297 300 303 304 305 307 307 307 308 306 301 300 298 297 297 295 296 300 300 296 301 307 308 308 307 304 305 305 301 294 291 287 283 278
Height
1587 1587 1587 1587 1587 1588 1588 1588 1587 1587 1587 1587 1587 1587 1587 1586 1586 1586 1585 1585 1584 1584 1583 1583 1583 1582 1582 1582 1581 1581 1581 1580 1580 1580 1580 1580 1580 1580 1580 1581 1581 1582 1582 1582 1583 1583 1584 1584 1585 1586 1586 1587 1588 1589 1590 1591 1592 1592 1593 1594 1594 1595 1595 1596 1597 1597 1598 1598 1599 1600 1600 1601 1601 1602 1602 1602 1602 1603 1603 1603 1604 1604 1604 1603 1603
1587 1587 1587 1587 1587 1587 1587 1587 1587 1586 1586 1586 1586 1586 1586 1586 1585 1585 1585 1584 1584 1583 1583 1583 1582 1582 1581 1581 1580 1580 1580 1580 1580 1580 1579 1579 1579 1579 1579 1580 1580 1581 1581 1582 1582 1583 1583 1583 1584 1584 1585 1586 1586 1588 1589 1590 1591 1591 1591 1592 1593 1594 1595 1595 1596 1596 1596 1597 1598 1598 1599 1599 1600 1600 1601 1601 1602 1602 1602 1602 1603 1603 1603 1603 1603
1586 1586 1586 1586 1586 1586 1586 1586 1586 1585 1585 1585 1585 1585 1585 1585 1584 1584 1584 1584 1583 1583 1582 1582 1582 1581 1581 1580 1580 1579 1579 1579 1579 1579 1579 1579 1579 1579 1579 1579 1579 1580 1580 1581 1581 1582 1582 1582 1582 1582 1583 1584 1584 1586 1587 1587 1588 1588 1589 1590 1591 1592 1593 1594 1594 1595 1595 1596 1596 1597 1597 1598 1598 1599 1600 1600 1601 1601 1601 1601 1601 1602 1602 1602 1602
1585 1585 1585 1585 1586 1585 1586 1585 1585 1585 1585 1585 1584 1584 1584 1584 1583 1583 1583 1583 1583 1582 1581 1581 1580 1580 1580 1579 1579 1578 1578 1578 1578 1578 1578 1578 1578 1578 1578 1578 1578 1578 1579 1579 1580 1580 1581 1581 1580 1580 1580 1581 1582 1583 1584 1584 1584 1584 1585 1587 1589 1590 1591 1592 1593 1593 1594 1594 1594 1595 1596 1596 1597 1598 1598 1598 1599 1599 1600 1600 1600 1601 1601 1601 1601
1584 1584 1584 1585 1585 1585 1585 1584 1584 1583 1583 1583 1583 1583 1583 1582 1582 1582 1582 1582 1581 1581 1580 1580 1580 1579 1579 1579 1578 1578 1577 1577 1577 1577 1577 1577 1577 1576 1576 1577 1577 1577 1577 1578 1578 1579 1579 1579 1578 1578 1579 1579 1580 1581 1582 1582 1583 1583 1584 1585 1586 1588 1589 1590 1591 1591 1592 1592 1592 1593 1594 1594 1595 1596 1596 1597 1597 1598 1598 1599 1599 1599 1600 1600 1600
1583 1583 1584 1584 1584 1584 1583 1583 1583 1582 1582 1582 1582 1582 1582 1581 1581 1581 1581 1580 1580 1580 1580 1579 1579 1578 1578 1578 1577 1577 1577 1576 1576 1576 1576 1576 1575 1575 1575 1575 1575 1576 1576 1576 1577 1577 1577 1577 1577 1577 1578 1578 1578 1579 1580 1581 1582 1583 1583 1584 1584 1585 1587 1588 1589 1589 1589 1590 1590 1591 1592 1592 1593 1594 1595 1595 1596 1596 1597 1597 1598 1598 1598 1598 1599
1583 1583 1583 1583 1583 1583 1582 1582 1582 1581 1581 1581 1581 1580 1580 1580 1580 1580 1579 1579 1579 1578 1578 1578 1578 1577 1577 1577 1576 1576 1576 1575 1575 1575 1575 1575 1574 1574 1574 1574 1574 1574 1575 1575 1575 1575 1575 1575 1575 1576 1577 1577 1577 1577 1578 1579 1581 1582 1582 1582 1582 1583 1584 1586 1587 1588 1588 1588 1588 1589 1590 1590 1591 1592 1593 1594 1594 1595 1595 1595 1596 1597 1597 1597 1597
1582 1582 1582 1582 1582 1582 1581 1580 1580 1580 1580 1580 1579 1579 1579 1579 1579 1578 1578 1578 1577 1577 1576 1576 1575 1575 1575 1575 1575 1575 1574 1574 1574 1574 1573 1573 1573 1573 1573 1573 1573 1573 1573 1574 1574 1574 1574 1573 1574 1574 1575 1575 1575 1576 1577 1578 1580 1581 1581 1581 1581 1582 1583 1583 1584 1585 1586 1586 1586 1586 1587 1588 1589 1590 1591 1592 1592 1593 1594 1594 1594 1595 1595 1596 1596
1581 1581 1581 1581 1580 1580 1580 1579 1579 1579 1579 1579 1578 1578 1578 1578 1577 1577 1577 1576 1576 1575 1574 1574 1573 1573 1573 1573 1573 1573 1573 1573 1572 1572 1572 1572 1572 1572 1572 1572 1572 1572 1572 1572 1573 1573 1572 1572 1572 1573 1573 1574 1574 1575 1576 1577 1579 1579 1579 1580 1580 1580 1581 1581 1581 1582 1583 1584 1584 1584 1585 1586 1587 1588 1589 1590 1591 1591 1592 1593 1593 1593 1594 1594 1595
1580 1580 1579 1579 1579 1579 1579 1579 1578 1578 1578 1577 1577 1577 1577 1576 1576 1576 1575 1575 1574 1574 1573 1572 1572 1571 1572 1572 1572 1572 1572 1572 1571 1571 1571 1571 1571 1571 1571 1571 1571 1571 1571 1571 1572 1572 1571 1571 1571 1572 1572 1573 1573 1574 1574 1575 1576 1577 1577 1577 1578 1577 1577 1577 1578 1579 1580 1581 1582 1582 1583 1584 1585 1586 1587 1588 1589 1589 1590 1591 1591 1592 1592 1593 1593
1578 1578 1578 1578 1578 1578 1578 1577 1577 1577 1577 1577 1576 1576 1575 1575 1575 1574 1574 1573 1573 1572 1572 1571 1571 1570 1570 1570 1570 1570 1570 1570 1570 1570 1570 1570 1570 1570 1570 1570 1570 1570 1570 1571 1571 1571 1571 1570 1570 1571 1571 1571 1572 1572 1573 1574 1574 1575 1575 1575 1575 1575 1575 1575 1575 1576 1578 1579 1580 1581 1581 1582 1583 1584 1584 1585 1586 1587 1588 1588 1589 1590 1591 1591 1591
1577 1577 1577 1577 1577 1577 1576 1576 1576 1576 1575 1575 1575 1575 1574 1574 1573 1573 1572 1572 1572 1571 1571 1570 1569 1569 1569 1569 1569 1569 1569 1569 1569 1569 1569 1569 1569 1569 1569 1569 1569 1569 1570 1570 1570 1571 1570 1570 1570 1570 1570 1570 1570 1571 1571 1572 1572 1573 1573 1573 1573 1572 1572 1572 1572 1573 1575 1577 1578 1579 1580 1581 1581 1582 1583 1583 1583 1584 1585 1586 1587 1587 1588 1589 1589
1576 1576 1576 1576 1575 1575 1575 1575 1574 1574 1574 1574 1573 1573 1573 1572 1572 1572 1572 1571 1571 1570 1570 1569 1568 1568 1568 1568 1568 1568 1568 1568 1568 1568 1568 1569 1569 1569 1569 1568 1568 1569 1569 1569 1570 1570 1570 1570 1569 1569 1569 1569 1569 1569 1570 1570 1570 1570 1570 1570 1570 1570 1569 1569 1569 1571 1573 1574 1575 1576 1577 1579 1580 1580 1581 1581 1581 1582 1582 1583 1584 1585 1586 1586 1587
1575 1575 1574 1574 1574 1574 1574 1574 1573 1573 1573 1572 1572 1572 1571 1571 1571 1571 1571 1570 1570 1569 1569 1568 1568 1567 1567 1567 1568 1568 1568 1568 1568 1568 1568 1568 1568 1568 1568 1568 1568 1568 1568 1569 1569 1569 1569 1569 1569 1569 1568 1568 1568 1568 1568 1568 1568 1568 1568 1568 1568 1567 1567 1566 1568 1570 1571 1572 1573 1574 1575 1576 1577 1577 1578 1579 1579 1579 1579 1580 1581 1581 1583 1584 1584
1573 1573 1573 1573 1573 1573 1573 1572 1572 1572 1571 1571 1571 1571 1571 1571 1571 1570 1570 1569 1569 1568 1568 1568 1567 1567 1566 1566 1567 1567 1568 1568 1568 1568 1567 1567 1568 1568 1568 1568 1567 1567 1567 1568 1568 1568 1568 1568 1568 1567 1567 1567 1567 1567 1567 1567 1566 1566 1566 1565 1565 1565 1565 1565 1566 1568 1569 1570 1570 1571 1572 1573 1573 1574 1574 1575 1576 1576 1577 1577 1577 1578 1579 1580 1581
1572 1572 1572 1572 1572 1572 1572 1571 1571 1571 1570 1570 1570 1570 1570 1570 1570 1570 1569 1569 1568 1568 1568 1567 1567 1566 1566 1566 1566 1567 1567 1568 1567 1567 1567 1567 1567 1567 1567 1567 1567 1567 1567 1567 1567 1567 1567 1567 1567 1566 1566 1566 1566 1565 1565 1565 1565 1565 1564 1564 1563 1563 1563 1563 1564 1566 1566 1566 1567 1569 1570 1570 1570 1570 1571 1572 1572 1573 1573 1574 1574 1575 1576 1577 1578
1571 1571 1571 1571 1571 1571 1571 1571 1570 1570 1569 1569 1569 1569 1569 1569 1569 1569 1569 1568 1568 1567 1567 1567 1566 1566 1566 1566 1566 1566 1567 1567 1566 1566 1567 1566 1566 1566 1566 1565 1565 1566 1566 1566 1566 1566 1566 1566 1566 1565 1565 1564 1564 1564 1564 1563 1563 1563 1563 1562 1562 1561 1561 1561 1562 1562 1563 1564 1565 1566 1567 1567 1567 1567 1568 1569 1569 1570 1570 1570 1571 1572 1573 1574 1575
1569 1570 1570 1570 1570 1570 1570 1570 1569 1569 1569 1569 1569 1569 1569 1568 1568 1568 1568 1568 1567 1567 1566 1566 1566 1565 1565 1565 1566 1566 1566 1566 1566 1566 1566 1566 1566 1566 1565 1565 1565 1565 1565 1565 1565 1565 1565 1565 1565 1565 1564 1564 1563 1563 1562 1562 1562 1561 1561 1560 1560 1560 1559 1559 1560 1560 1561 1562 1563 1563 1563 1564 1564 1564 1564 1565 1566 1567 1567 1567 1568 1569 1570 1571 1572
1568 1569 1569 1569 1569 1569 1569 1569 1569 1568 1568 1568 1568 1568 1568 1568 1568 1568 1567 1567 1567 1567 1566 1566 1565 1565 1565 1565 1565 1565 1565 1565 1565 1566 1566 1566 1566 1566 1566 1565 1565 1565 1565 1565 1565 1565 1565 1564 1564 1564 1564 1563 1563 1562 1561 1561 1560 1560 1559 1558 1558 1558 1558 1558 1558 1558 1559 1559 1560 1560 1560 1561 1561 1561 1561 1562 1562 1563 1563 1564 1564 1565 1566 1568 1569
1567 1568 1568 1568 1568 1568 1568 1568 1568 1568 1568 1568 1567 1567 1567 1567 1567 1567 1567 1567 1567 1566 1566 1566 1565 1565 1564 1564 1564 1564 1564 1564 1564 1565 1565 1565 1565 1566 1566 1565 1565 1565 1565 1565 1565 1565 1564 1564 1564 1564 1563 1563 1562 1562 1561 1560 1560 1559 1558 1557 1556 1556 1556 1556 1556 1556 1556 1556 1557 1557 1557 1558 1558 1558 1558 1558 1559 1559 1560 1561 1561 1562 1563 1564 1565
1566 1566 1566 1567 1567 1567 1567 1567 1567 1567 1567 1567 1567 1567 1567 1567 1567 1567 1566 1566 1566 1566 1565 1565 1565 1564 1564 1563 1563 1563 1563 1563 1563 1563 1564 1564 1564 1564 1564 1564 1565 1565 1564 1564 1564 1565 1564 1564 1564 1564 1563 1563 1562 1561 1561 1560 1559 1558 1557 1556 1555 1554 1554 1553 1553 1553 1553 1553 1553 1553 1554 1554 1554 1554 1555 1555 1555 1556 1556 1557 1558 1558 1559 1560 1561
1564 1564 1565 1565 1565 1565 1565 1565 1565 1566 1566 1566 1566 1566 1566 1566 1566 1566 1566 1566 1565 1565 1565 1565 1564 1564 1563 1563 1563 1563 1563 1563 1563 1563 1563 1563 1563 1563 1563 1563 1564 1564 1564 1564 1564 1564 1564 1564 1563 1563 1563 1562 1562 1561 1560 1559 1558 1557 1556 1555 1554 1553 1552 1551 1551 1550 1550 1550 1550 1550 1550 1550 1550 1550 1551 1551 1552 1552 1552 1553 1554 1554 1555 1556 1558
1562 1562 1563 1563 1563 1564 1564 1564 1564 1564 1565 1565 1565 1565 1565 1565 1565 1565 1565 1565 1565 1564 1564 1564 1564 1564 1563 1563 1563 1563 1563 1563 1563 1562 1563 1563 1563 1563 1563 1562 1562 1563 1563 1563 1563 1563 1563 1562 1562 1562 1561 1561 1560 1560 1559 1558 1557 1556 1555 1554 1552 1551 1550 1549 1548 1547 1547 1547 1546 1546 1546 1546 1546 1546 1546 1547 1547 1548 1549 1549 1550 1551 1552 1553 1554
1560 1560 1561 1561 1562 1562 1562 1562 1563 1563 1563 1564 1564 1564 1564 1564 1565 1565 1565 1564 1564 1564 1564 1564 1564 1563 1563 1563 1562 1562 1562 1562 1562 1562 1562 1562 1562 1562 1561 1561 1561 1561 1561 1562 1562 1561 1561 1561 1561 1560 1560 1559 1559 1558 1557 1557 1556 1555 1554 1552 1551 1550 1548 1547 1546 1545 1544 1543 1543 1542 1542 1542 1542 1542 1542 1543 1543 1544 1545 1545 1546 1547 1548 1549 1550
1558 1559 1559 1560 1560 1560 1561 1561 1562 1562 1562 1563 1563 1563 1563 1564 1564 1564 1564 1564 1564 1564 1564 1564 1564 1563 1563 1562 1562 1562 1561 1561 1561 1561 1561 1561 1561 1561 1560 1559 1559 1559 1559 1560 1560 1560 1560 1560 1559 1559 1558 1558 1557 1556 1556 1555 1554 1553 1552 1551 1549 1548 1547 1545 1544 1543 1541 1540 1540 1539 1538 1538 1538 1539 1539 1539 1539 1540 1540 1541 1542 1543 1544 1545 1546
1557 1558 1558 1559 1559 1560 1560 1560 1561 1561 1561 1562 1562 1562 1562 1563 1563 1563 1564 1563 1563 1563 1563 1563 1563 1563 1563 1562 1561 1561 1561 1560 1560 1560 1560 1560 1560 1560 1559 1558 1557 1557 1557 1557 1557 1558 1558 1558 1558 1557 1556 1556 1555 1554 1553 1553 1551 1550 1550 1548 1547 1546 1545 1543 1542 1540 1539 1537 1536 1536 1535 1534 1534 1534 1535 1535 1535 1536 1536 1537 1538 1539 1540 1541 1542
1556 1557 1557 1558 1558 1559 1559 1559 1560 1560 1560 1560 1561 1561 1561 1562 1562 1562 1563 1563 1563 1563 1563 1563 1563 1562 1562 1562 1561 1561 1560 1560 1560 1559 1559 1559 1559 1559 1558 1557 1556 1555 1555 1554 1554 1555 1555 1555 1555 1555 1554 1554 1553 1552 1551 1550 1549 1548 1547 1546 1545 1544 1543 1541 1540 1538 1536 1535 1534 1533 1532 1531 1530 1530 1530 1531 1531 1531 1532 1532 1533 1534 1536 1537 1538
1555 1555 1556 1557 1557 1558 1558 1558 1559 1559 1559 1559 1560 1560 1560 1560 1561 1561 1561 1562 1562 1562 1562 1562 1562 1562 1561 1561 1561 1560 1560 1559 1559 1559 1558 1558 1558 1558 1557 1557 1556 1554 1553 1552 1552 1552 1552 1552 1552 1552 1552 1551 1550 1550 1549 1548 1547 1545 1545 1544 1543 1542 1541 1539 1538 1536 1534 1533 1531 1530 1529 1528 1527 1526 1526 1526 1526 1527 1527 1528 1529 1530 1531 1532 1533
1554 1554 1555 1555 1556 1556 1556 1557 1557 1558 1558 1558 1559 1559 1559 1559 1559 1560 1560 1560 1560 1560 1561 1561 1561 1561 1560 1560 1560 1559 1559 1559 1558 1558 1557 1557 1557 1557 1556 1556 1555 1554 1552 1551 1550 1550 1549 1549 1549 1548 1548 1548 1548 1547 1546 1546 1545 1543 1542 1541 1540 1539 1538 1537 1536 1534 1533 1531 1529 1528 1526 1525 1524 1523 1522 1522 1522 1522 1522 1523 1524 1525 1526 1527 1529
1552 1552 1553 1553 1554 1554 1554 1555 1556 1556 1557 1557 1558 1558 1558 1558 1558 1559 1559 1559 1559 1559 1560 1560 1560 1560 1559 1559 1558 1558 1558 1557 1557 1557 1556 1556 1556 1555 1555 1555 1554 1553 1552 1550 1549 1548 1547 1546 1547 1547 1545 1545 1545 1544 1544 1543 1542 1541 1540 1539 1538 1537 1536 1535 1534 1532 1531 1530 1528 1526 1524 1523 1521 1520 1519 1518 1517 1517 1518 1518 1519 1520 1521 1522 1524
1550 1550 1551 1551 1552 1552 1553 1554 1554 1555 1556 1556 1557 1557 1557 1558 1558 1558 1558 1558 1558 1558 1558 1558 1559 1558 1558 1558 1557 1556 1556 1556 1555 1555 1554 1554 1554 1554 1554 1553 1552 1551 1550 1549 1547 1547 1546 1544 1543 1544 1543 1542 1541 1541 1541 1540 1539 1538 1537 1536 1535 1534 1533 1532 1531 1530 1529 1527 1526 1524 1522 1520 1518 1516 1515 1514 1513 1513 1513 1513 1514 1515 1516 1517 1518
1547 1548 1549 1549 1550 1551 1551 1552 1553 1553 1554 1555 1556 1556 1557 1557 1557 1557 1557 1557 1557 1557 1557 1557 1557 1557 1557 1556 1555 1555 1554 1554 1553 1553 1553 1552 1552 1552 1552 1551 1550 1549 1548 1547 1545 1544 1544 1543 1541 1540 1540 1539 1538 1538 1537 1536 1536 1535 1534 1533 1532 1531 1530 1529 1528 1527 1526 1524 1523 1521 1519 1517 1515 1513 1512 1510 1510 1509 1508 1508 1509 1510 1511 1512 1513
1546 1547 1548 1548 1549 1550 1550 1551 1551 1552 1552 1553 1554 1555 1555 1556 1556 1556 1556 1556 1556 1555 1555 1555 1555 1555 1555 1554 1554 1553 1553 1552 1551 1551 1551 1551 1550 1550 1550 1549 1549 1548 1546 1545 1543 1541 1541 1541 1539 1538 1537 1536 1535 1535 1534 1533 1532 1532 1531 1530 1529 1528 1527 1526 1524 1523 1522 1521 1519 1518 1516 1514 1512 1510 1509 1507 1506 1505 1504 1504 1504 1504 1506 1507 1508
1545 1546 1547 1547 1548 1548 1549 1549 1550 1550 1551 1551 1552 1553 1554 1554 1555 1555 1555 1554 1554 1554 1553 1553 1553 1553 1553 1552 1552 1551 1551 1550 1549 1549 1549 1549 1548 1548 1548 1547 1547 1546 1545 1543 1541 1539 1538 1538 1538 1536 1535 1534 1532 1532 1531 1530 1529 1528 1527 1527 1526 1525 1524 1523 1521 1520 1519 1518 1516 1514 1513 1511 1509 1507 1505 1504 1502 1501 1500 1499 1499 1499 1500 1501 1502
1545 1545 1545 1545 1546 1546 1547 1547 1548 1548 1549 1550 1550 1551 1552 1552 1553 1553 1553 1553 1552 1552 1551 1551 1551 1551 1551 1550 1550 1549 1549 1548 1547 1547 1547 1546 1546 1546 1546 1545 1544 1544 1543 1542 1540 1538 1536 1535 1535 1535 1533 1532 1530 1529 1528 1527 1526 1524 1523 1523 1522 1522 1521 1519 1518 1516 1515 1514 1512 1511 1509 1507 1506 1504 1502 1500 1499 1497 1496 1495 1494 1494 1494 1495 1496
1543 1543 1543 1543 1543 1544 1544 1545 1545 1546 1547 1547 1548 1549 1550 1550 1551 1551 1551 1551 1550 1550 1550 1549 1549 1549 1548 1548 1547 1547 1547 1546 1546 1545 1545 1544 1544 1543 1543 1543 1542 1542 1541 1540 1538 1537 1534 1532 1532 1532 1531 1529 1527 1526 1525 1523 1522 1521 1520 1519 1518 1518 1517 1516 1514 1513 1511 1510 1509 1507 1505 1503 1502 1500 1498 1496 1495 1494 1492 1491 1489 1489 1488 1489 1490
1540 1540 1541 1541 1541 1541 1541 1542 1543 1543 1544 1545 1546 1546 1547 1548 1549 1549 1549 1549 1548 1548 1548 1547 1547 1547 1546 1546 1545 1545 1545 1544 1544 1543 1543 1542 1542 1541 1541 1541 1540 1539 1538 1537 1536 1535 1533 1531 1529 1528 1527 1526 1525 1524 1522 1521 1520 1518 1517 1516 1515 1514 1513 1512 1511 1509 1508 1506 1505 1503 1501 1499 1497 1496 1494 1492 1490 1489 1488 1487 1485 1484 1483 1483 1484
1538 1538 1538 1538 1538 1538 1539 1540 1540 1541 1542 1543 1543 1544 1545 1545 1546 1546 1546 1546 1546 1546 1546 1545 1545 1544 1544 1543 1543 1543 1543 1542 1542 1541 1541 1540 1539 1539 1539 1539 1538 1537 1536 1535 1534 1532 1531 1529 1526 1525 1524 1523 1522 1521 1520 1519 1517 1515 1513 1512 1511 1510 1509 1508 1506 1505 1504 1502 1500 1499 1497 1495 1493 1491 1490 1488 1486 1484 1483 1482 1480 1479 1478 1477 1478
1535 1535 1536 1536 1536 1537 1537 1538 1538 1539 1540 1540 1541 1542 1542 1542 1543 1543 1543 1543 1543 1543 1543 1543 1542 1541 1541 1541 1541 1540 1540 1540 1539 1539 1538 1538 1537 1537 1536 1536 1536 1535 1534 1533 1531 1530 1528 1527 1524 1523 1522 1521 1520 1519 1518 1517 1515 1513 1511 1509 1508 1507 1506 1504 1503 1501 1500 1498 1496 1494 1493 1491 1489 1487 1485 1483 1481 1479 1478 1476 1475 1474 1473 1472 1472
1532 1532 1533 1534 1534 1535 1535 1535 1536 1537 1537 1538 1539 1539 1540 1540 1540 1540 1540 1540 1540 1540 1540 1540 1539 1539 1538 1538 1538 1538 1538 1537 1537 1536 1536 1535 1534 1534 1534 1533 1533 1532 1531 1530 1529 1528 1526 1524 1523 1521 1520 1519 1518 1517 1516 1515 1513 1512 1510 1508 1505 1504 1503 1501 1500 1498 1496 1494 1492 1490 1488 1486 1484 1482 1479 1477 1476 1475 1473 1471 1469 1468 1467 1466 1466
1529 1529 1530 1531 1532 1532 1532 1532 1533 1534 1535 1535 1536 1537 1538 1538 1538 1538 1537 1537 1538 1537 1537 1537 1536 1536 1536 1536 1535 1535 1535 1535 1534 1534 1533 1532 1531 1531 1531 1531 1530 1529 1529 1528 1526 1525 1524 1522 1521 1520 1518 1517 1516 1515 1514 1513 1511 1509 1507 1505 1502 1501 1499 1498 1496 1495 1493 1491 1488 1485 1484 1482 1479 1477 1475 1473 1471 1470 1468 1466 1464 1462 1461 1461 1461
1525 1525 1526 1528 1529 1529 1529 1530 1530 1531 1532 1532 1533 1534 1535 1535 1536 1535 1535 1535 1535 1535 1535 1534 1534 1533 1533 1533 1533 1533 1533 1532 1532 1531 1530 1529 1528 1528 1528 1528 1527 1526 1525 1525 1524 1522 1521 1520 1519 1518 1516 1515 1514 1513 1511 1510 1508 1506 1504 1502 1499 1498 1496 1494 1492 1492 1491 1488 1484 1481 1479 1478 1475 1472 1470 1468 1466 1465 1463 1461 1459 1458 1456 1455 1455
1521 1522 1523 1524 1525 1526 1526 1527 1527 1528 1529 1530 1531 1532 1532 1533 1533 1533 1532 1533 1533 1533 1532 1532 1531 1531 1531 1530 1530 1530 1530 1529 1529 1528 1527 1526 1525 1524 1524 1524 1524 1523 1522 1521 1521 1520 1519 1517 1516 1515 1513 1512 1511 1510 1508 1506 1505 1503 1502 1500 1497 1495 1493 1491 1488 1487 1488 1486 1482 1477 1474 1473 1472 1467 1464 1462 1461 1459 1458 1456 1454 1452 1450 1449 1448
1518 1519 1520 1521 1522 1523 1523 1523 1524 1525 1526 1527 1528 1529 1529 1530 1530 1530 1529 1530 1530 1530 1530 1529 1529 1529 1528 1528 1527 1527 1527 1526 1526 1525 1524 1523 1522 1521 1521 1521 1520 1520 1519 1518 1517 1516 1516 1514 1513 1512 1510 1509 1508 1507 1505 1503 1502 1500 1498 1497 1495 1493 1490 1488 1485 1483 1484 1483 1479 1473 1469 1468 1468 1463 1459 1457 1455 1453 1451 1449 1447 1445 1444 1442 1442
1515 1516 1516 1518 1519 1519 1520 1520 1521 1522 1523 1524 1526 1526 1526 1527 1527 1527 1527 1527 1527 1527 1527 1526 1526 1526 1525 1525 1524 1524 1524 1523 1522 1522 1521 1520 1519 1519 1518 1518 1517 1516 1515 1514 1513 1513 1512 1510 1509 1508 1507 1506 1505 1503 1502 1500 1498 1496 1494 1493 1491 1489 1486 1485 1482 1480 1479 1478 1475 1470 1464 1463 1464 1460 1455 1453 1451 1447 1444 1442 1440 1438 1436 1436 1435
1512 1512 1514 1515 1516 1516 1517 1518 1519 1520 1520 1522 1523 1524 1524 1524 1524 1524 1524 1524 1524 1524 1524 1524 1523 1523 1522 1522 1521 1521 1521 1520 1520 1519 1518 1517 1517 1516 1515 1515 1514 1513 1512 1511 1510 1509 1508 1507 1505 1504 1504 1503 1501 1500 1499 1497 1495 1492 1490 1488 1487 1485 1482 1480 1478 1475 1474 1473 1471 1466 1460 1458 1459 1456 1450 1447 1445 1441 1438 1435 1433 1431 1429 1429 1429
1509 1510 1512 1513 1513 1514 1516 1516 1517 1517 1518 1519 1520 1521 1521 1521 1521 1521 1521 1521 1521 1521 1520 1521 1520 1520 1519 1519 1518 1518 1518 1517 1517 1516 1516 1515 1514 1513 1513 1512 1511 1510 1509 1508 1507 1506 1505 1504 1502 1501 1500 1500 1498 1496 1495 1494 1491 1489 1487 1484 1482 1480 1477 1474 1472 1470 1469 1469 1468 1464 1456 1454 1455 1450 1444 1442 1439 1435 1432 1429 1426 1424 1423 1422 1422
1507 1508 1509 1510 1511 1512 1513 1514 1515 1515 1516 1517 1518 1518 1518 1518 1518 1518 1517 1517 1517 1517 1517 1517 1517 1516 1516 1516 1515 1514 1514 1514 1513 1513 1513 1512 1511 1510 1509 1509 1508 1507 1506 1504 1504 1503 1502 1500 1499 1498 1497 1497 1495 1493 1492 1491 1488 1486 1483 1481 1479 1476 1474 1471 1468 1466 1465 1465 1465 1461 1453 1449 1450 1445 1438 1436 1433 1428 1425 1423 1419 1417 1416 1415 1415
1504 1506 1507 1507 1508 1510 1511 1512 1512 1513 1513 1514 1515 1514 1514 1515 1515 1514 1514 1514 1514 1514 1513 1513 1513 1512 1512 1512 1512 1511 1511 1510 1510 1509 1509 1508 1507 1507 1506 1506 1505 1504 1503 1501 1500 1499 1498 1497 1496 1495 1494 1493 1492 1490 1489 1488 1486 1483 1480 1477 1476 1474 1471 1468 1465 1462 1461 1459 1458 1457 1451 1446 1445 1441 1433 1430 1427 1421 1417 1415 1412 1411 1409 1408 1408
1501 1503 1504 1505 1507 1508 1508 1509 1510 1510 1511 1511 1512 1511 1511 1511 1511 1511 1510 1510 1510 1510 1509 1508 1508 1508 1508 1507 1507 1508 1507 1506 1506 1505 1505 1504 1504 1503 1503 1502 1501 1500 1500 1498 1496 1495 1494 1493 1492 1492 1490 1489 1488 1487 1485 1484 1482 1480 1477 1474 1472 1471 1469 1466 1462 1459 1456 1452 1451 1451 1446 1441 1440 1436 1429 1423 1418 1413 1411 1408 1405 1404 1403 1402 1401
1498 1500 1502 1503 1504 1505 1505 1506 1507 1507 1507 1508 1509 1508 1508 1508 1507 1507 1506 1506 1506 1506 1505 1504 1504 1504 1503 1502 1502 1503 1502 1501 1501 1501 1501 1501 1500 1500 1500 1499 1498 1497 1497 1495 1493 1492 1491 1490 1489 1488 1487 1486 1485 1483 1481 1480 1478 1477 1474 1471 1470 1468 1466 1463 1460 1456 1451 1446 1445 1445 1441 1437 1435 1431 1427 1421 1411 1402 1402 1402 1400 1398 1398 1397 1396